Regional Weather Roundup
Issued by NWS

Home | Current Version | Previous Version | Graphics & Text | Print | Product List | Glossary Off
Versions: 1 2 3 4 5 6 7 8 9 10 11 12 13 14 15 16 17 18 19 20 21 22 23 24 25 26 27 28 29 30 31 32 33 34 35 36 37 38 39 40 41 42 43 44 45 46 47 48 49 50

000
ASUS43 KTOP 162359
RWRKS

WEATHER ROUNDUP FOR KANSAS
NATIONAL WEATHER SERVICE GOODLAND KS
600 PM CST MON JAN 16 2017

NOTE:  "FAIR" INDICATES FEW OR NO CLOUDS BELOW 12,000 FEET WITH NO
SIGNIFICANT WEATHER AND/OR OBSTRUCTIONS TO VISIBILITY.

KSZ001>006-013>018-027>032-041>047-170100-
NORTHWEST KANSAS

CITY           SKY/WX    TMP DP  RH WIND       PRES   REMARKS
GOODLAND       CLOUDY    33  30  88 NW14      30.02R WCI  23
6HR MIN TEMP:  32; 6HR MAX TEMP:  34; 6HR PCP:  0.01;

HAYS           CLOUDY    33  32  96 N13       29.97R WCI  24
HILL CITY      CLOUDY    34  34 100 N12       29.99R FOG     WCI  25
6HR MIN TEMP:  33; 6HR MAX TEMP:  35; 6HR PCP:  0.01;

RUSSELL        CLOUDY    33  32  96 N15       29.95R WCI  23
6HR MIN TEMP:  32; 6HR MAX TEMP:  33;

$$

KSZ061>065-074>080-084>089-170100-
SOUTHWEST KANSAS

CITY           SKY/WX    TMP DP  RH WIND       PRES   REMARKS
DODGE CITY     CLOUDY    33  32  96 NW12      30.01R WCI  24
6HR MIN TEMP:  32; 6HR MAX TEMP:  33; 6HR PCP: TRACE;

ELKHART          N/A     34  24  67 NW14        N/A  WCI  25
GARDEN CITY    CLOUDY    33  32  96 N13       30.02R FOG     WCI  24
6HR MIN TEMP:  33; 6HR MAX TEMP:  34;

GREAT BEND     CLOUDY    33  31  92 NW14      29.97R WCI  23
LIBERAL        CLOUDY    37  32  81 NW14      30.03R WCI  29
$$

KSZ066>073-081>083-090>101-170100-
SOUTHEAST KANSAS

CITY           SKY/WX    TMP DP  RH WIND       PRES   REMARKS
CHANUTE        CLOUDY    40  37  89 SW10      29.95R WCI  33
6HR MIN TEMP:  40; 6HR MAX TEMP:  48; 6HR PCP:  0.01;

HUTCHINSON     CLOUDY    35  32  88 NW13      29.96R WCI  26
6HR MIN TEMP:  35; 6HR MAX TEMP:  37;

MEDICINE LODGE   N/A     36  31  82 NW12      29.99R WCI  28
NEWTON         CLOUDY    34  33  96 W12       29.95R WCI  25
PARSONS        CLOUDY    42  36  79 SW10      29.96R
6HR MIN TEMP:  42; 6HR MAX TEMP:  50;

WICHITA INTL   CLOUDY    37  34  89 W10       29.96R WCI  30
6HR MIN TEMP:  37; 6HR MAX TEMP:  40; 6HR PCP:  0.01;

WICHITA JABRA  CLOUDY    37  35  92 W7        29.95R
6HR MIN TEMP:  37; 6HR MAX TEMP:  39; 6HR PCP:  0.01;

WINFIELD       CLOUDY    39  35  86 W10       29.98R WCI  32
6HR MIN TEMP:  39; 6HR MAX TEMP:  41;

$$

KSZ007>012-019>026-033>040-048>060-102>105-170100-
NORTHEAST KANSAS

CITY           SKY/WX    TMP DP  RH WIND       PRES   REMARKS
CONCORDIA      CLOUDY    32  32 100 N8        29.93R
6HR MIN TEMP:  32; 6HR MAX TEMP:  33; 6HR PCP:  0.01;

EMPORIA        CLOUDY    38  37  97 W12       29.91R WCI  30
6HR MIN TEMP:  38; 6HR MAX TEMP:  43; 6HR PCP:  0.06;

LAWRENCE       CLOUDY    42  40  92 SW10      29.89R
6HR MIN TEMP:  42; 6HR MAX TEMP:  47; 6HR PCP:  0.05;

MANHATTAN      CLOUDY    35  33  92 NW6       29.92R
6HR MIN TEMP:  35; 6HR MAX TEMP:  40; 6HR PCP:  0.10;

OLATHE IND     DRIZZLE   42  40  92 SW14      29.89R
6HR MIN TEMP:  42; 6HR MAX TEMP:  53; 6HR PCP:  0.06;

OLATHE EXE     LGT RAIN  42  42 100 SW9       29.88R
6HR MIN TEMP:  42; 6HR MAX TEMP:  52; 6HR PCP:  0.05;

SALINA         CLOUDY    34  34 100 NW8         N/A  FOG
6HR MIN TEMP:  34; 6HR MAX TEMP:  68;

TOPEKA BILLARD LGT RAIN  42  38  85 SW8       29.89R
6HR MIN TEMP:  42; 6HR MAX TEMP:  49; 6HR PCP:  0.11;

TOPEKA FORBES  CLOUDY    42  39  89 SW13      29.89R
6HR MIN TEMP:  42; 6HR MAX TEMP:  49; 6HR PCP:  0.12;

$$




USA.gov is the U.S. government's official web portal to all federal, state and local government web resources and services.